Weather History for Queen Beatrix Airport, Aruba

Change the Weather History Date:

Tuesday, August 20, 2013

  Actual Average Record
Temperature  
Mean Temperature 88 °F -  
Max Temperature 96 °F 90 °F - ()
Min Temperature 81 °F 79 °F - ()
Cooling Degree Days 24    
Growing Degree Days 38 (Base 50)    
Moisture  
Dew Point 77 °F    
Average Humidity 73    
Maximum Humidity 84    
Minimum Humidity 48    
Precipitation  
Precipitation 0.00 in - - ()
Sea Level Pressure  
Sea Level Pressure 29.80 in    
Wind  
Wind Speed 13 mph ()    
Max Wind Speed 23 mph    
Max Gust Speed -    
Visibility 6.2 miles    
Events      
T = Trace of Precipitation, MM = Missing Value Source: Averaged Metar Reports

Daily Weather History Graph

Daily Weather History Graph

Search for Another Location

Airport:

Trip Planner

Search our weather history database for the weather conditions in past years. The results will help you decide how hot, cold, wet, or windy it might be!

Date:

Astronomy

Aug. 20, 2013 Rise Set
Actual Time 6:28 AM AST 6:57 PM AST
Civil Twilight 6:07 AM AST 7:19 PM AST
Nautical Twilight 5:41 AM AST 7:44 PM AST
Astronomical Twilight 5:15 AM AST 8:10 PM AST
Moon 6:37 PM AST (8/20) 5:51 AM AST (8/20)
Length of Visible Light 13h 12m
Length of Day
12h 28m
Full, 100% of the Moon is Illuminated
Aug 20
Full
Aug 20
Full
Aug 28
Last Quarter
Sep 5
New
Sep 12
First Quarter

Hourly Weather History & Observations

Time (AST) Temp. Heat Index Dew Point Humidity Pressure Visibility Wind Dir Wind Speed Gust Speed Precip Events Conditions
12:00 AM 82.4 °F 90.9 °F 77.0 °F 84% 29.83 in - North - - N/A   Partly Cloudy
1:00 AM 82.4 °F 90.9 °F 77.0 °F 84% 29.80 in 6.2 mi ENE 10.4 mph - N/A   Partly Cloudy
2:00 AM 82 °F - 78 °F 83% 29.81 in 31 mi ENE 10.4 mph - -  
2:00 AM 82.4 °F 90.9 °F 77.0 °F 84% 29.80 in 6.2 mi ENE 10.4 mph - N/A   Partly Cloudy
3:00 AM 82.4 °F 90.9 °F 77.0 °F 84% 29.77 in 6.2 mi ENE 15.0 mph - N/A   Partly Cloudy
4:00 AM 82.4 °F 90.9 °F 77.0 °F 84% 29.77 in 6.2 mi East 11.5 mph - N/A   Partly Cloudy
5:00 AM 82 °F - 77 °F 79% 29.79 in 31 mi East 11.5 mph - -   Scattered Clouds
5:00 AM 82.4 °F 90.9 °F 77.0 °F 84% 29.77 in 6.2 mi East 11.5 mph - N/A   Partly Cloudy
6:00 AM 82.4 °F 90.9 °F 77.0 °F 84% 29.80 in 6.2 mi East 10.4 mph - N/A   Partly Cloudy
7:00 AM 82.4 °F 90.9 °F 77.0 °F 84% 29.80 in 6.2 mi East 10.4 mph - N/A   Partly Cloudy
8:00 AM 86 °F - 77 °F 68% 29.83 in 31 mi East 13.8 mph - -   Scattered Clouds
8:00 AM 86.0 °F 96.9 °F 77.0 °F 74% 29.83 in - East 13.8 mph - N/A   Partly Cloudy
9:00 AM 87.8 °F 99.7 °F 77.0 °F 70% 29.83 in 6.2 mi East 19.6 mph - N/A   Partly Cloudy
10:00 AM 89.6 °F 102.2 °F 77.0 °F 66% 29.83 in 6.2 mi East 17.3 mph - N/A   Partly Cloudy
11:00 AM 92 °F - 76 °F 52% 29.84 in 31 mi East 19.6 mph - -   Scattered Clouds
11:00 AM 91.4 °F 105.1 °F 77.0 °F 63% 29.83 in 6.2 mi East 19.6 mph - N/A   Partly Cloudy
12:00 PM - - - N/A% 29.83 in 6.2 mi East 17.3 mph - N/A   Partly Cloudy
1:00 PM 93.2 °F 107.2 °F 77.0 °F 59% 29.77 in 6.2 mi ESE 13.8 mph - N/A   Partly Cloudy
2:00 PM 94 °F - 76 °F 48% 29.78 in 31 mi East 15.0 mph - -   Scattered Clouds
2:00 PM 95.0 °F 109.7 °F 77.0 °F 56% 29.77 in 6.2 mi East 15.0 mph - N/A   Partly Cloudy
3:00 PM 93.2 °F 107.2 °F 77.0 °F 59% 29.74 in 6.2 mi ENE 20.7 mph - N/A   Partly Cloudy
4:00 PM 93.2 °F 107.2 °F 77.0 °F 59% 29.74 in 6.2 mi ENE 20.7 mph - N/A   Partly Cloudy
5:00 PM 90 °F - 78 °F 60% 29.74 in 31 mi ENE 23.0 mph - -   Scattered Clouds
5:00 PM 89.6 °F 102.2 °F 77.0 °F 66% 29.74 in 6.2 mi ENE 23.0 mph - N/A   Partly Cloudy
6:00 PM 87.8 °F 99.7 °F 77.0 °F 70% 29.74 in 6.2 mi ENE 19.6 mph - N/A   Partly Cloudy
7:00 PM 86.0 °F 99.3 °F 78.8 °F 79% 29.77 in 6.2 mi NE 17.3 mph - N/A   Partly Cloudy
8:00 PM 85 °F - 79 °F 79% 29.82 in 31 mi ENE 18.4 mph - -   Scattered Clouds
8:00 PM 84.2 °F 96.1 °F 78.8 °F 84% 29.80 in 6.2 mi ENE 18.4 mph - N/A   Partly Cloudy
9:00 PM 84.2 °F 96.1 °F 78.8 °F 84% 29.86 in 6.2 mi East 18.4 mph - N/A   Partly Cloudy
10:00 PM 84.2 °F 94.1 °F 77.0 °F 79% 29.86 in 6.2 mi East 18.4 mph - N/A   Partly Cloudy
11:00 PM 84 °F - 78 °F 76% 29.88 in 31 mi East 19.6 mph - -   Scattered Clouds
11:00 PM 84.2 °F 94.1 °F 77.0 °F 79% 29.86 in 6.2 mi East 19.6 mph - N/A   Partly Cloudy